Weather History for KFMN - December, 2013

Change the Weather History Date:

Sunday, December 8, 2013

  Actual Average Record
Temperature  
Mean Temperature 22 °F -  
Max Temperature 32 °F 42 °F 58 °F (1987)
Min Temperature 10 °F 20 °F -8 °F (1978)
Degree Days  
Heating Degree Days 43    
Moisture  
Dew Point 13 °F    
Average Humidity 63    
Maximum Humidity 92    
Minimum Humidity 24    
Precipitation  
Precipitation 0.08 in - - ()
Sea Level Pressure  
Sea Level Pressure 29.93 in    
Wind  
Wind Speed 14 mph (WNW)    
Max Wind Speed 28 mph    
Max Gust Speed 36 mph    
Visibility 7 miles    
Events Snow    
Averages and records for this station are not official NWS values.
T = Trace of Precipitation, MM = Missing Value Source: NWS Daily Summary

Daily Weather History Graph

Daily Weather History Graph

Search for Another Location

Airport or City:

Trip Planner

Search our weather history database for the weather conditions in past years. The results will help you decide how hot, cold, wet, or windy it might be!

Date:

Astronomy

Dec. 08, 2013 Rise Set
Actual Time 7:13 AM MST 4:56 PM MST
Civil Twilight 6:44 AM MST 5:25 PM MST
Nautical Twilight 6:12 AM MST 5:57 PM MST
Astronomical Twilight 5:40 AM MST 6:29 PM MST
Moon 11:42 AM MST (12/8) 11:41 PM MST (12/8)
Length of Visible Light 10h 40m
Length of Day
9h 43m
Waxing Crescent, 40% of the Moon is Illuminated
Dec 8
Waxing Crescent
Dec 9
First Quarter
Dec 17
Full
Dec 25
Last Quarter
Jan 1
New

Hourly Weather History & Observations

Time (MST) Temp. Windchill Dew Point Humidity Pressure Visibility Wind Dir Wind Speed Gust Speed Precip Events Conditions
12:15 AM 30.0 °F 21.1 °F 24.1 °F 79% 29.74 in 1.8 mi SW 10.4 mph - 0.00 in Snow Light Snow
12:25 AM 28.9 °F 17.7 °F 24.1 °F 82% 29.73 in 3.0 mi SW 15.0 mph 20.7 mph 0.00 in Snow Light Snow
12:29 AM 28.9 °F 16.9 °F 24.1 °F 82% 29.73 in 2.5 mi SSW 17.3 mph - 0.00 in Snow Light Snow
12:37 AM 28.0 °F 18.1 °F 25.0 °F 88% 29.73 in 1.0 mi WSW 11.5 mph 24.2 mph 0.01 in Snow Light Snow
12:46 AM 28.0 °F 19.3 °F 25.0 °F 88% 29.73 in 1.2 mi West 9.2 mph - 0.02 in Snow Light Snow
12:53 AM 28.0 °F 18.6 °F 26.1 °F 92% 29.76 in 1.8 mi West 10.4 mph - 0.02 in Snow Light Snow
12:59 AM 28.9 °F 16.1 °F 26.1 °F 89% 29.73 in 3.0 mi West 19.6 mph 25.3 mph 0.00 in Snow Light Snow
1:21 AM 28.0 °F 13.3 °F 24.1 °F 85% 29.71 in 1.8 mi West 25.3 mph 34.5 mph 0.01 in Snow Light Snow
1:34 AM 26.1 °F 11.0 °F 24.1 °F 92% 29.72 in 0.8 mi WNW 24.2 mph 35.7 mph 0.03 in Snow Light Snow
1:48 AM 26.6 °F 12.7 °F 23.0 °F 86% 29.72 in 1.8 mi WNW 20.7 mph 27.6 mph 0.04 in Snow Light Snow
1:53 AM 26.1 °F 14.5 °F 23.0 °F 88% 29.77 in 3.0 mi WNW 13.8 mph 24.2 mph 0.04 in Snow Light Snow
2:12 AM 26.1 °F 14.0 °F 21.0 °F 81% 29.73 in 9.0 mi WNW 15.0 mph 25.3 mph 0.00 in   Overcast
2:53 AM 25.0 °F 11.7 °F 19.0 °F 78% 29.80 in 6.0 mi WNW 17.3 mph 23.0 mph 0.00 in Snow Light Snow
3:48 AM 24.8 °F 14.0 °F 19.4 °F 80% 29.79 in 2.5 mi WNW 11.5 mph - 0.00 in Snow Light Snow
3:53 AM 24.1 °F 12.5 °F 19.0 °F 81% 29.86 in 5.0 mi WNW 12.7 mph - 0.00 in Snow Light Snow
4:53 AM 24.1 °F 13.1 °F 16.0 °F 71% 29.86 in 10.0 mi WNW 11.5 mph - 0.00 in   Overcast
5:53 AM 24.1 °F 10.6 °F 12.9 °F 62% 29.88 in 10.0 mi WNW 17.3 mph - N/A   Overcast
6:53 AM 23.0 °F 12.4 °F 12.9 °F 65% 29.92 in 10.0 mi WNW 10.4 mph - N/A   Overcast
7:53 AM 21.0 °F 8.6 °F 10.0 °F 63% 29.96 in 10.0 mi WNW 12.7 mph - N/A   Mostly Cloudy
8:53 AM 23.0 °F 10.1 °F 10.9 °F 60% 30.00 in 10.0 mi WNW 15.0 mph - N/A   Clear
9:53 AM 25.0 °F 8.6 °F 9.0 °F 51% 30.02 in 10.0 mi West 27.6 mph 33.4 mph N/A   Clear
10:53 AM 25.0 °F 9.2 °F 8.1 °F 49% 30.05 in 10.0 mi WNW 25.3 mph 32.2 mph N/A   Clear
11:53 AM 26.1 °F 13.1 °F 9.0 °F 49% 30.05 in 10.0 mi WNW 17.3 mph 24.2 mph N/A   Clear
12:53 PM 27.0 °F 15.2 °F 8.1 °F 45% 30.03 in 10.0 mi WNW 15.0 mph - N/A   Clear
1:53 PM 27.0 °F 15.2 °F 5.0 °F 39% 30.03 in 10.0 mi West 15.0 mph - N/A   Clear
2:53 PM 27.0 °F 17.3 °F 3.0 °F 36% 30.04 in 10.0 mi WNW 10.4 mph - N/A   Clear
3:53 PM 26.1 °F 16.8 °F 3.0 °F 37% 30.03 in 10.0 mi NW 9.2 mph - N/A   Clear
4:53 PM 23.0 °F 13.1 °F 3.9 °F 44% 30.05 in 10.0 mi NW 9.2 mph - N/A   Clear
5:53 PM 21.0 °F 14.6 °F 1.9 °F 44% 30.07 in 10.0 mi NW 4.6 mph - N/A   Clear
6:53 PM 19.0 °F 13.9 °F 1.0 °F 46% 30.09 in 10.0 mi WNW 3.5 mph - N/A   Clear
7:53 PM 17.1 °F 6.6 °F 3.9 °F 56% 30.12 in 10.0 mi North 8.1 mph - N/A   Clear
8:53 PM 16.0 °F 6.3 °F 3.9 °F 59% 30.12 in 10.0 mi North 6.9 mph - N/A   Overcast
9:53 PM 14.0 °F 5.1 °F 5.0 °F 67% 30.13 in 10.0 mi North 5.8 mph - N/A   Overcast
10:53 PM 12.9 °F 5.2 °F 3.0 °F 65% 30.15 in 10.0 mi North 4.6 mph - N/A   Overcast
11:53 PM 10.9 °F 0.2 °F 1.9 °F 67% 30.16 in 10.0 mi North 6.9 mph - N/A   Overcast